Regional Weather Roundup
Issued by NWS

Home | Current Version | Previous Version | Graphics & Text | Print | Product List | Glossary On
Versions: 1 2 3 4 5 6 7 8 9 10 11 12 13 14 15 16 17 18 19 20 21 22 23 24 25 26 27 28 29 30 31 32 33 34 35 36 37 38 39 40 41 42 43 44 45 46 47 48 49 50
944
ASUS43 KOAX 131202
RWRNE

WEATHER ROUNDUP FOR NEBRASKA
NATIONAL WEATHER SERVICE OMAHA NE
600 AM CST SAT FEB 13 2016

NOTES: SATELLITE DATA IS BEING USED TO AUGMENT CLOUD COVER ABOVE
       12000 FEET.
       "FAIR" INDICATES FEW OR NO CLOUDS BELOW 12,000 FEET WITH NO
       SIGNIFICANT WEATHER AND/OR OBSTRUCTIONS TO VISIBILITY.

  * THESE STATIONS DO NOT REPORT WEATHER SUCH AS RAIN...SNOW OR FOG.

NEZ001>004-019>022-054>056-131300-
NEBRASKA PANHANDLE

CITY           SKY/WX    TMP DP  RH WIND       PRES   REMARKS
SCOTTSBLUFF    CLOUDY    30  28  92 SE9       30.09F WCI  22
6HR MIN TEMP:  30; 6HR MAX TEMP:  33;

ALLIANCE       CLOUDY    30  29  96 S17       30.10F FOG     WCI  18
6HR MIN TEMP:  30; 6HR MAX TEMP:  31;

CHADRON        CLOUDY    32  28  85 S6        30.08F WCI  26
6HR MIN TEMP:  32; 6HR MAX TEMP:  34;

SIDNEY         CLOUDY    30  30 100 S13       30.13F WCI  20
6HR MIN TEMP:  29; 6HR MAX TEMP:  30;

$$

NEZ057>060-069>072-079>082-131300-
SOUTHWEST NEBRASKA

CITY           SKY/WX    TMP DP  RH WIND       PRES   REMARKS
NORTH PLATTE   CLOUDY    22  19  89 SE10      30.30F WCI  11
6HR MIN TEMP:  22; 6HR MAX TEMP:  25;

IMPERIAL       CLOUDY    27  26  96 S17       30.25S WCI  14
6HR MIN TEMP:  27; 6HR MAX TEMP:  29;

MCCOOK         CLOUDY    22  21  96 SE14      30.34F FOG     WCI   9
6HR MIN TEMP:  22; 6HR MAX TEMP:  26;

$$

NEZ005>010-023>029-035>040-094-131300-
NORTH CENTRAL NEBRASKA

CITY           SKY/WX    TMP DP  RH WIND       PRES   REMARKS
VALENTINE      CLOUDY    22  19  89 SE20      30.25F WCI   7
6HR MIN TEMP:  22; 6HR MAX TEMP:  23; 6HR PCP: TRACE;

AINSWORTH      CLOUDY    19  17  88 S17G25    30.30F WCI   4
BROKEN BOW     CLOUDY    18  13  80 SE17      30.37F WCI   3
6HR MIN TEMP:  18; 6HR MAX TEMP:  20;

ORD            CLOUDY    16   7  67 S13       30.42F WCI   2
6HR MIN TEMP:  15; 6HR MAX TEMP:  18;

$$

NEZ041-046>049-061>064-073>077-083>087-131300-
SOUTH CENTRAL NEBRASKA

CITY           SKY/WX    TMP DP  RH WIND       PRES   REMARKS
GRAND ISLAND   CLOUDY    15   7  70 SE12      30.48F WCI   2
6HR MIN TEMP:  15; 6HR MAX TEMP:  17;

HASTINGS       CLOUDY    15   5  64 SE13      30.46F WCI   1
6HR MIN TEMP:  15; 6HR MAX TEMP:  19;

KEARNEY *      CLOUDY    18  12  79 SE14      30.43F WCI   4
$$

NEZ011>018-030>034-042>045-131300-
NORTHEAST NEBRASKA

CITY           SKY/WX    TMP DP  RH WIND       PRES   REMARKS
NORFOLK        CLOUDY    12   3  67 SE8       30.51F WCI   0
6HR MIN TEMP:  11; 6HR MAX TEMP:  13;

BLAIR          CLOUDY    10   0  65 E6        30.57F WCI   0
COLUMBUS *     CLOUDY    12  -2  52 E8        30.53F WCI   1
FREMONT        CLOUDY    10   0  64 E3        30.58F
TEKAMAH        CLOUDY     8  -2  63 E6        30.62F WCI  -2
6HR MIN TEMP:   7; 6HR MAX TEMP:   9;

$$

NEZ050>053-065>068-078-088>093-131300-
SOUTHEAST NEBRASKA

CITY           SKY/WX    TMP DP  RH WIND       PRES   REMARKS
LINCOLN        CLOUDY    15   3  59 E6        30.58F WCI   6
6HR MIN TEMP:  14; 6HR MAX TEMP:  15;

OMAHA EPPLEY   CLOUDY     9   0  67 E5        30.63S WCI   1
6HR MIN TEMP:   9; 6HR MAX TEMP:  13;

BEATRICE       CLOUDY    16   4  60 E8        30.56S WCI   5
FALLS CITY     CLOUDY    15   3  59 E9        30.61S WCI   3
6HR MIN TEMP:  15; 6HR MAX TEMP:  16;

NEBRASKA CITY  CLOUDY    13   1  60 E3        30.60S
$$

NEZ044-045-051>053-067-131300-
OMAHA AREA

CITY           SKY/WX    TMP DP  RH WIND       PRES   REMARKS
OMAHA EPPLEY   CLOUDY     9   0  67 E5        30.63S WCI   1
6HR MIN TEMP:   9; 6HR MAX TEMP:  13;

BLAIR          CLOUDY    10   0  65 E6        30.57F WCI   0
FREMONT        CLOUDY    10   0  64 E3        30.58F
OFFUTT AFB     CLOUDY    10   0  62 E5        30.61S WCI   2
WAHOO          CLOUDY    12   3  69 E5        30.57F WCI   4
$$




USA.gov is the U.S. government's official web portal to all federal, state and local government web resources and services.